TimeEST,TemperatureF,Dew PointF,Humidity,Sea Level PressureIn,VisibilityMPH,Wind Direction,Wind SpeedMPH,Gust SpeedMPH,PrecipitationIn,Events,Conditions,WindDirDegrees,DateUTC
12:55 AM,29.5,25.9,86,30.49,10.0,Calm,Calm,-,N/A,,Clear,0,2012-11-18 05:55:00
1:55 AM,30.6,27.1,87,30.48,10.0,Calm,Calm,-,N/A,,Clear,0,2012-11-18 06:55:00
2:55 AM,28.4,25.7,90,30.49,10.0,Calm,Calm,-,N/A,,Clear,0,2012-11-18 07:55:00
3:55 AM,30.2,27.5,90,30.47,10.0,Calm,Calm,-,N/A,,Clear,0,2012-11-18 08:55:00
4:55 AM,28.8,26.6,92,30.47,10.0,Calm,Calm,-,N/A,,Clear,0,2012-11-18 09:55:00
5:55 AM,27.0,24.8,92,30.49,10.0,Calm,Calm,-,N/A,,Clear,0,2012-11-18 10:55:00
6:55 AM,29.3,26.6,90,30.49,10.0,Calm,Calm,-,N/A,,Clear,0,2012-11-18 11:55:00
7:55 AM,27.3,24.4,89,30.50,10.0,Calm,Calm,-,N/A,,Partly Cloudy,0,2012-11-18 12:55:00
8:55 AM,32.9,29.1,86,30.51,10.0,Calm,Calm,-,N/A,,Partly Cloudy,0,2012-11-18 13:55:00
9:55 AM,41.5,30.6,65,30.50,10.0,ENE,3.5,-,N/A,,Clear,60,2012-11-18 14:55:00
10:55 AM,47.8,30.9,52,30.50,10.0,Calm,Calm,-,N/A,,Partly Cloudy,0,2012-11-18 15:55:00
11:55 AM,53.4,29.7,40,30.47,10.0,Variable,4.6,-,N/A,,Partly Cloudy,0,2012-11-18 16:55:00
12:55 PM,56.1,26.6,32,30.44,10.0,East,5.8,-,N/A,,Scattered Clouds,80,2012-11-18 17:55:00
1:55 PM,57.9,23.7,27,30.42,10.0,Calm,Calm,-,N/A,,Scattered Clouds,0,2012-11-18 18:55:00
2:55 PM,58.6,24.4,27,30.40,10.0,East,5.8,-,N/A,,Scattered Clouds,90,2012-11-18 19:55:00
3:55 PM,59.2,23.2,25,30.40,10.0,East,5.8,-,N/A,,Scattered Clouds,90,2012-11-18 20:55:00
4:55 PM,54.5,25.0,32,30.42,10.0,East,8.1,-,N/A,,Scattered Clouds,90,2012-11-18 21:55:00
5:55 PM,48.7,24.4,39,30.42,10.0,East,6.9,-,N/A,,Scattered Clouds,100,2012-11-18 22:55:00
6:55 PM,45.7,25.0,44,30.43,10.0,NE,4.6,-,N/A,,Scattered Clouds,40,2012-11-18 23:55:00
7:55 PM,41.5,26.1,54,30.44,10.0,Calm,Calm,-,N/A,,Scattered Clouds,0,2012-11-19 00:55:00
9:55 PM,34.9,29.3,80,30.43,10.0,Calm,Calm,-,N/A,,Partly Cloudy,0,2012-11-19 02:55:00
10:55 PM,32.7,27.1,80,30.42,10.0,Calm,Calm,-,N/A,,Clear,0,2012-11-19 03:55:00
11:55 PM,32.7,26.4,78,30.41,10.0,Calm,Calm,-,N/A,,Clear,0,2012-11-19 04:55:00